Hourly Weather Roundup
Issued by NWS Central Illinois

Home | Current Version | Previous Version | Text Only | Print | Product List | Glossary On
Versions: 1 2 3 4 5 6 7 8 9 10 11 12 13 14 15 16 17 18 19 20 21 22 23 24 25 26 27 28 29 30 31 32 33 34 35 36 37 38 39 40 41 42 43 44 45 46 47 48 49 50
000
NZUS43 KILX 221710
HWRILX

AREA WEATHER ROUNDUP
NATIONAL WEATHER SERVICE, LINCOLN IL
1200 PM CDT TUE JUL 22 2014


CITY           SKY/WX    TMP DP  RH WIND       PRES   REMARKS
BLOOMINGTON    MOSUNNY   82  70  67 S15       30.06F HX  86
CHAMPAIGN      SUNNY     83  70  64 SW13      30.08S HX  87
DECATUR        SUNNY     81 N/A N/A S14       30.08F
FLORA          SUNNY     83  68  59 S9        30.10S HX  86
GALESBURG      LGT RAIN  81  73  78 CALM      30.01R HX  85
JACKSONVILLE   CLOUDY    81  72  75 S10       30.02F HX  85
LACON          PTSUNNY   83  70  65 S10G16    30.00S HX  87
LAWRENCEVILLE  SUNNY     86  69  56 W8        30.10S HX  90
LITCHFIELD     MOSUNNY   82  70  66 W5        30.09F HX  85
$$


CITY           SKY/WX    TMP DP  RH WIND       PRES   REMARKS
LINCOLN        PTSUNNY   85  69  58 S6        30.00F HX  89
MACOMB         CLOUDY    75  73  92 N17       30.04R
MATTOON        SUNNY     82  67  60 SW10      30.08F HX  84
MT CARMEL AP   SUNNY     88  70  55 W3        30.10S HX  92
OLNEY-NOBLE AP SUNNY     82  70  65 CALM      30.09F HX  86
PARIS          SUNNY     82  70  66 S9        30.09F HX  86
PEORIA         CLOUDY    84  71  65 S10       30.00F HX  89
PONTIAC        MOSUNNY   84  72  65 SW13      30.03F HX  89
RANTOUL        SUNNY     83  69  62 SW12      30.07F HX  87
ROBINSON       SUNNY     87  71  60 SW3       30.10F HX  92
SPRINGFIELD    PTSUNNY   85  71  63 S9        30.03F HX  90
TAYLORVILLE    MOSUNNY   81  70  69 SW8       30.07F HX  84
$$

...REGIONAL REPORTS...


CITY           SKY/WX    TMP DP  RH WIND       PRES   REMARKS
CHICAGO O`HARE PTSUNNY   83  66  56 SW13G22   30.00S HX  85
KANKAKEE       SUNNY     84  71  65 S13       30.05F HX  89
MOLINE         PTSUNNY   83  73  72 SW12      29.98S HX  89
MOUNT VERNON   SUNNY     84  70  61 SW9       30.10F HX  88
PITTSFIELD     CLOUDY    77  70  79 SW8       30.05F
QUINCY         CLOUDY    74  70  87 S12       30.01F
ROCKFORD       MOSUNNY   85  72  65 S15       29.98F HX  91
$$


CITY           SKY/WX    TMP DP  RH WIND       PRES   REMARKS
BURLINGTON     CLOUDY    77  73  87 SW13G22   29.99F
CEDAR RAPIDS   MOSUNNY   87  76  69 SW9       29.95F HX  97
DES MOINES     CLOUDY    88  77  69 SE10      29.95F HX 100
KIRKSVILLE     PTSUNNY   85  76  74 S9        30.04F HX  94
OTTUMWA        PTSUNNY   82  75  79 SW9       29.96F HX  89
ST LOUIS       PTSUNNY   89  69  51 VRB3      30.09R HX  93
$$


CITY           SKY/WX    TMP DP  RH WIND       PRES   REMARKS
TERRE HAUTE    SUNNY     85  69  58 SW9       30.08F HX  89
EVANSVILLE     SUNNY     87  67  51 CALM      30.09S HX  90
INDIANAPOLIS   MOSUNNY   84  65  52 SW10      30.08F HX  86
LAFAYETTE      SUNNY     82  67  60 S9        30.07S HX  84
MADISON        MOSUNNY   85  73  67 SW8       29.93F HX  91
MILWAUKEE      CLOUDY    84  69  60 SW18      29.95F HX  88
$$




USA.gov is the U.S. government's official web portal to all federal, state and local government web resources and services.